TAY8LP EDDP-LKPR

Flight info

Callsign TAY8LP
Flight time 0h 38m
Altitude 25000
Route DRN2N DRN T620 LALUK DCT GOLOP
Aircraft B738/M-SDE2E3FGHIRWXY/LB1

Departure

Time 2026-05-04 19:50
Airport Leipzig/Halle Airport (EDDP)

Arrival

Time 2026-05-04 20:29
Airport Václav Havel Airport Prague (LKPR)
Time Latitude Longitude Altitude Speed Heading
2026-05-04 19:23 51.40819 12.20315 430 ft 0 kts 176°
2026-05-04 19:39 51.40828 12.20314 436 ft 4 kts 175°
2026-05-04 19:39 51.40854 12.20309 425 ft 4 kts 171°
2026-05-04 19:39 51.40881 12.20300 426 ft 4 kts 163°
2026-05-04 19:39 51.40905 12.20284 427 ft 4 kts 144°
2026-05-04 19:40 51.40919 12.20257 433 ft 3 kts 89°
2026-05-04 19:40 51.40919 12.20254 434 ft 1 kts 85°
2026-05-04 19:42 51.40920 12.20262 433 ft 5 kts 85°
2026-05-04 19:42 51.40923 12.20348 432 ft 8 kts 86°
2026-05-04 19:42 51.40955 12.20435 425 ft 10 kts 32°
2026-05-04 19:43 51.40992 12.20528 430 ft 11 kts 83°
2026-05-04 19:43 51.40998 12.20649 432 ft 11 kts 87°
2026-05-04 19:43 51.41004 12.20780 429 ft 13 kts 85°
2026-05-04 19:43 51.41011 12.20940 440 ft 16 kts 88°
2026-05-04 19:44 51.41020 12.21112 447 ft 16 kts 86°
2026-05-04 19:44 51.41028 12.21305 450 ft 18 kts 85°
2026-05-04 19:44 51.41038 12.21497 454 ft 17 kts 85°
2026-05-04 19:44 51.41048 12.21704 459 ft 20 kts 86°
2026-05-04 19:45 51.41059 12.21941 458 ft 21 kts 85°
2026-05-04 19:45 51.41071 12.22176 459 ft 21 kts 86°
2026-05-04 19:45 51.41080 12.22403 458 ft 20 kts 84°
2026-05-04 19:45 51.41091 12.22622 461 ft 19 kts 86°
2026-05-04 19:46 51.41100 12.22833 464 ft 19 kts 85°
2026-05-04 19:46 51.41112 12.23039 469 ft 18 kts 85°
2026-05-04 19:46 51.41119 12.23238 471 ft 18 kts 86°
2026-05-04 19:46 51.41129 12.23429 474 ft 17 kts 86°
2026-05-04 19:47 51.41138 12.23635 473 ft 22 kts 86°
2026-05-04 19:47 51.41152 12.23903 473 ft 24 kts 85°
2026-05-04 19:47 51.41163 12.24164 470 ft 20 kts 86°
2026-05-04 19:47 51.41169 12.24297 471 ft 1 kts 85°
2026-05-04 19:48 51.41169 12.24300 471 ft 2 kts 84°
2026-05-04 19:48 51.41175 12.24366 471 ft 7 kts 74°
2026-05-04 19:48 51.41214 12.24398 473 ft 7 kts 339°
2026-05-04 19:49 51.41224 12.24361 472 ft 9 kts 266°
2026-05-04 19:49 51.41222 12.24246 472 ft 12 kts 284°
2026-05-04 19:49 51.41265 12.24096 473 ft 17 kts 296°
2026-05-04 19:49 51.41313 12.23859 472 ft 28 kts 279°
2026-05-04 19:50 51.41296 12.23326 469 ft 81 kts 266°
2026-05-04 19:50 51.41233 12.22027 457 ft 153 kts 265°
2026-05-04 19:50 51.41127 12.20130 980 ft 172 kts 261°
2026-05-04 19:50 51.40944 12.18278 2000 ft 173 kts 264°
2026-05-04 19:51 51.40777 12.16217 2459 ft 201 kts 262°
2026-05-04 19:51 51.40562 12.13920 2943 ft 216 kts 263°
2026-05-04 19:51 51.40192 12.11441 3211 ft 241 kts 251°
2026-05-04 19:51 51.39879 12.08799 3891 ft 243 kts 264°
2026-05-04 19:52 51.39275 12.06310 4605 ft 246 kts 230°
2026-05-04 19:52 51.37802 12.04792 4979 ft 263 kts 195°
2026-05-04 19:52 51.35977 12.04867 5015 ft 270 kts 160°
2026-05-04 19:52 51.34293 12.06209 5034 ft 271 kts 152°
2026-05-04 19:53 51.32601 12.07626 5406 ft 276 kts 155°
2026-05-04 19:53 51.30894 12.08933 6475 ft 269 kts 158°
2026-05-04 19:53 51.29181 12.10135 7396 ft 269 kts 159°
2026-05-04 19:53 51.27444 12.11323 8244 ft 273 kts 153°
2026-05-04 19:54 51.26096 12.13491 9071 ft 284 kts 120°
2026-05-04 19:54 51.25329 12.16371 9940 ft 286 kts 115°
2026-05-04 19:54 51.24584 12.19391 10434 ft 302 kts 114°
2026-05-04 19:54 51.23784 12.22644 10614 ft 327 kts 114°
2026-05-04 19:55 51.22920 12.26140 10842 ft 348 kts 114°
2026-05-04 19:55 51.22013 12.29785 11352 ft 357 kts 114°
2026-05-04 19:55 51.21084 12.33499 12100 ft 360 kts 114°
2026-05-04 19:55 51.20145 12.37226 12790 ft 365 kts 114°
2026-05-04 19:56 51.19186 12.41006 13489 ft 370 kts 115°
2026-05-04 19:56 51.18208 12.44845 14170 ft 375 kts 115°
2026-05-04 19:56 51.17232 12.48663 14837 ft 379 kts 115°
2026-05-04 19:56 51.16216 12.52625 15536 ft 383 kts 115°
2026-05-04 19:57 51.15219 12.56506 16204 ft 387 kts 115°
2026-05-04 19:57 51.14190 12.60500 16874 ft 391 kts 115°
2026-05-04 19:57 51.13149 12.64537 17524 ft 395 kts 115°
2026-05-04 19:57 51.12098 12.68601 18162 ft 400 kts 115°
2026-05-04 19:58 51.11033 12.72715 18728 ft 404 kts 115°
2026-05-04 19:58 51.09956 12.76867 19298 ft 407 kts 115°
2026-05-04 19:58 51.08869 12.81053 19862 ft 411 kts 115°
2026-05-04 19:58 51.07771 12.85271 20409 ft 415 kts 115°
2026-05-04 19:59 51.07038 12.88082 20766 ft 417 kts 115°
2026-05-04 19:59 51.05920 12.92364 21304 ft 421 kts 115°
2026-05-04 19:59 51.04421 12.98091 22000 ft 426 kts 115°
2026-05-04 19:59 51.03275 13.02460 22537 ft 429 kts 115°
2026-05-04 20:00 51.02120 13.06855 23071 ft 433 kts 115°
2026-05-04 20:00 51.01332 13.09849 23422 ft 436 kts 115°
2026-05-04 20:00 50.99773 13.15759 24009 ft 440 kts 115°
2026-05-04 20:00 50.98988 13.18733 24287 ft 443 kts 115°
2026-05-04 20:01 50.97789 13.23263 24605 ft 449 kts 115°
2026-05-04 20:01 50.96568 13.27863 24438 ft 452 kts 115°
2026-05-04 20:01 50.95357 13.32428 24235 ft 445 kts 115°
2026-05-04 20:01 50.94162 13.36923 23974 ft 440 kts 115°
2026-05-04 20:02 50.92773 13.41199 23608 ft 434 kts 128°
2026-05-04 20:02 50.90774 13.44709 23232 ft 426 kts 141°
2026-05-04 20:02 50.88448 13.47439 22824 ft 419 kts 152°
2026-05-04 20:02 50.85826 13.49536 22435 ft 414 kts 157°
2026-05-04 20:03 50.83224 13.51492 22033 ft 412 kts 157°
2026-05-04 20:03 50.80633 13.53437 21647 ft 410 kts 157°
2026-05-04 20:03 50.78103 13.55346 21263 ft 408 kts 157°
2026-05-04 20:03 50.75548 13.57285 20876 ft 406 kts 157°
2026-05-04 20:04 50.73013 13.59219 20504 ft 403 kts 156°
2026-05-04 20:04 50.70499 13.61141 20121 ft 399 kts 156°
2026-05-04 20:04 50.68015 13.63043 19652 ft 394 kts 156°
2026-05-04 20:04 50.65567 13.64916 19117 ft 389 kts 156°
2026-05-04 20:05 50.63136 13.66773 18578 ft 385 kts 156°
2026-05-04 20:05 50.60753 13.68593 18008 ft 376 kts 156°
2026-05-04 20:05 50.58421 13.70372 17418 ft 368 kts 157°
2026-05-04 20:05 50.56132 13.72115 16782 ft 362 kts 157°
2026-05-04 20:06 50.53880 13.73828 16170 ft 357 kts 157°
2026-05-04 20:06 50.51660 13.75514 15566 ft 352 kts 157°
2026-05-04 20:06 50.49468 13.77177 14903 ft 347 kts 158°
2026-05-04 20:06 50.47313 13.78810 14254 ft 343 kts 158°
2026-05-04 20:07 50.45173 13.80432 13638 ft 337 kts 158°
2026-05-04 20:07 50.43105 13.81996 13005 ft 331 kts 158°
2026-05-04 20:07 50.41040 13.83556 12367 ft 326 kts 158°
2026-05-04 20:07 50.39011 13.85087 11772 ft 322 kts 158°
2026-05-04 20:08 50.36995 13.86607 11168 ft 319 kts 158°
2026-05-04 20:08 50.35004 13.88107 10570 ft 316 kts 157°
2026-05-04 20:08 50.33210 13.89457 10022 ft 315 kts 157°
2026-05-04 20:08 50.31237 13.90942 9417 ft 313 kts 156°
2026-05-04 20:09 50.29327 13.92380 9203 ft 297 kts 156°
2026-05-04 20:09 50.27505 13.93749 9002 ft 283 kts 156°
2026-05-04 20:09 50.25770 13.95052 8788 ft 272 kts 156°
2026-05-04 20:09 50.24154 13.96512 8411 ft 269 kts 138°
2026-05-04 20:10 50.23012 13.98807 8026 ft 264 kts 126°
2026-05-04 20:10 50.21968 14.01126 7561 ft 257 kts 127°
2026-05-04 20:10 50.20943 14.03360 7084 ft 250 kts 127°
2026-05-04 20:10 50.19923 14.05529 6541 ft 246 kts 127°
2026-05-04 20:11 50.18909 14.07669 5935 ft 243 kts 127°
2026-05-04 20:11 50.17909 14.09763 5343 ft 241 kts 127°
2026-05-04 20:11 50.16906 14.11851 4956 ft 230 kts 127°
2026-05-04 20:11 50.16023 14.13699 4954 ft 205 kts 127°
2026-05-04 20:12 50.15143 14.15525 4909 ft 221 kts 128°
2026-05-04 20:12 50.14163 14.17469 5179 ft 231 kts 130°
2026-05-04 20:12 50.13154 14.19375 5677 ft 228 kts 130°
2026-05-04 20:12 50.12166 14.21264 5740 ft 217 kts 128°
2026-05-04 20:13 50.11300 14.23080 5675 ft 205 kts 127°
2026-05-04 20:13 50.10413 14.24958 5696 ft 229 kts 127°
2026-05-04 20:13 50.09451 14.27002 5580 ft 238 kts 127°
2026-05-04 20:13 50.08461 14.29111 5435 ft 242 kts 126°
2026-05-04 20:14 50.07625 14.31352 5286 ft 241 kts 107°
2026-05-04 20:14 50.07689 14.33910 5160 ft 241 kts 68°
2026-05-04 20:14 50.08583 14.36139 5082 ft 244 kts 55°
2026-05-04 20:14 50.09566 14.38294 5011 ft 244 kts 55°
2026-05-04 20:15 50.10547 14.40436 4971 ft 241 kts 55°
2026-05-04 20:15 50.11562 14.42464 4953 ft 242 kts 41°
2026-05-04 20:15 50.13105 14.43471 4970 ft 242 kts
2026-05-04 20:15 50.14694 14.42804 4962 ft 238 kts 324°
2026-05-04 20:16 50.15918 14.41102 4975 ft 236 kts 315°
2026-05-04 20:16 50.17075 14.39361 4959 ft 232 kts 315°
2026-05-04 20:16 50.18227 14.37619 4985 ft 228 kts 315°
2026-05-04 20:16 50.19206 14.36135 4982 ft 227 kts 315°
2026-05-04 20:17 50.20333 14.34421 4989 ft 226 kts 315°
2026-05-04 20:17 50.21460 14.32704 4993 ft 227 kts 315°
2026-05-04 20:17 50.22587 14.30980 4998 ft 228 kts 315°
2026-05-04 20:17 50.23725 14.29237 4999 ft 231 kts 315°
2026-05-04 20:18 50.24886 14.27456 5003 ft 236 kts 315°
2026-05-04 20:18 50.26055 14.25659 4989 ft 234 kts 315°
2026-05-04 20:18 50.27203 14.23893 4977 ft 231 kts 315°
2026-05-04 20:18 50.28353 14.22125 4987 ft 231 kts 315°
2026-05-04 20:19 50.29502 14.20357 4990 ft 232 kts 315°
2026-05-04 20:19 50.30641 14.18604 4988 ft 233 kts 315°
2026-05-04 20:19 50.31798 14.16823 4984 ft 233 kts 315°
2026-05-04 20:19 50.32970 14.15016 4986 ft 234 kts 315°
2026-05-04 20:20 50.34124 14.13221 4983 ft 234 kts 311°
2026-05-04 20:20 50.34786 14.10996 4972 ft 231 kts 273°
2026-05-04 20:20 50.34559 14.08523 4916 ft 231 kts 255°
2026-05-04 20:20 50.34177 14.06076 4747 ft 231 kts 255°
2026-05-04 20:21 50.33801 14.03675 4589 ft 223 kts 255°
2026-05-04 20:21 50.33441 14.01369 4467 ft 214 kts 255°
2026-05-04 20:21 50.32735 13.96843 4314 ft 217 kts 255°
2026-05-04 20:22 50.32373 13.94526 4244 ft 220 kts 255°
2026-05-04 20:22 50.32006 13.92203 4165 ft 219 kts 252°
2026-05-04 20:22 50.31180 13.90273 4024 ft 216 kts 211°
2026-05-04 20:22 50.29764 13.89745 3984 ft 211 kts 169°
2026-05-04 20:23 50.28466 13.90718 3997 ft 208 kts 145°
2026-05-04 20:23 50.27268 13.91998 3987 ft 207 kts 145°
2026-05-04 20:23 50.26103 13.93246 3982 ft 204 kts 143°
2026-05-04 20:23 50.25119 13.94818 3985 ft 202 kts 127°
2026-05-04 20:24 50.24260 13.96575 3984 ft 206 kts 127°
2026-05-04 20:24 50.23392 13.98361 3993 ft 206 kts 127°
2026-05-04 20:24 50.22550 14.00109 3975 ft 193 kts 127°
2026-05-04 20:24 50.21775 14.01725 3970 ft 183 kts 127°
2026-05-04 20:25 50.21004 14.03331 3985 ft 187 kts 127°
2026-05-04 20:25 50.20230 14.04943 3985 ft 182 kts 127°
2026-05-04 20:25 50.19494 14.06492 3937 ft 174 kts 126°
2026-05-04 20:25 50.18788 14.07988 3767 ft 170 kts 126°
2026-05-04 20:26 50.18085 14.09452 3559 ft 166 kts 127°
2026-05-04 20:26 50.17400 14.10871 3346 ft 162 kts 127°
2026-05-04 20:26 50.16716 14.12285 3139 ft 164 kts 126°
2026-05-04 20:26 50.16030 14.13705 2924 ft 164 kts 126°
2026-05-04 20:27 50.15356 14.15099 2745 ft 156 kts 126°
2026-05-04 20:27 50.14717 14.16420 2517 ft 147 kts 126°
2026-05-04 20:27 50.14103 14.17692 2326 ft 150 kts 126°
2026-05-04 20:27 50.13481 14.18983 2116 ft 148 kts 126°
2026-05-04 20:28 50.12871 14.20246 1900 ft 144 kts 125°
2026-05-04 20:28 50.12264 14.21503 1712 ft 146 kts 125°
2026-05-04 20:28 50.11653 14.22769 1516 ft 147 kts 126°
2026-05-04 20:28 50.11036 14.24048 1314 ft 149 kts 126°
2026-05-04 20:29 50.10434 14.25298 1176 ft 135 kts 127°
2026-05-04 20:29 50.09958 14.26283 1201 ft 92 kts 127°
2026-05-04 20:29 50.09666 14.26888 1214 ft 48 kts 127°
2026-05-04 20:29 50.09474 14.27287 1215 ft 44 kts 127°
2026-05-04 20:30 50.09448 14.27479 1216 ft 12 kts 38°
2026-05-04 20:30 50.09523 14.27563 1212 ft 15 kts 35°
2026-05-04 20:30 50.09617 14.27644 1207 ft 16 kts 355°
2026-05-04 20:30 50.09705 14.27543 1206 ft 16 kts 315°
2026-05-04 20:31 50.09782 14.27425 1205 ft 15 kts 316°
2026-05-04 20:31 50.09856 14.27312 1204 ft 15 kts 312°
2026-05-04 20:31 50.09923 14.27173 1205 ft 19 kts 306°
2026-05-04 20:31 50.10018 14.26977 1203 ft 27 kts 308°
2026-05-04 20:32 50.10141 14.26722 1197 ft 31 kts 306°
2026-05-04 20:32 50.10268 14.26459 1193 ft 31 kts 306°
2026-05-04 20:32 50.10386 14.26211 1188 ft 28 kts 307°
2026-05-04 20:32 50.10479 14.26019 1184 ft 19 kts 307°
2026-05-04 20:33 50.10591 14.26032 1175 ft 20 kts 32°
2026-05-04 20:33 50.10709 14.26153 1173 ft 20 kts 35°
2026-05-04 20:33 50.10822 14.26273 1173 ft 19 kts 34°
2026-05-04 20:33 50.10931 14.26390 1175 ft 19 kts 35°
2026-05-04 20:34 50.11036 14.26504 1172 ft 18 kts 33°
2026-05-04 20:34 50.11105 14.26662 1171 ft 18 kts 65°
2026-05-04 20:34 50.11162 14.26857 1170 ft 21 kts 65°
2026-05-04 20:34 50.11227 14.27073 1171 ft 23 kts 64°
2026-05-04 20:35 50.11293 14.27289 1170 ft 21 kts 65°
2026-05-04 20:35 50.11350 14.27486 1170 ft 14 kts 65°
2026-05-04 20:35 50.11348 14.27546 1170 ft 5 kts 153°
2026-05-04 20:35 50.11319 14.27565 1173 ft 4 kts 154°
2026-05-04 20:36 50.11305 14.27575 1174 ft 1 kts 155°
2026-05-04 20:36 50.11298 14.27581 1174 ft 0 kts 155°